Pineville, WV

6:09 PM EDT on March 28, 2017 (GMT -0400)
Pineville

Weather History for KI16 - March, 2014

Change the Weather History Date:

Wednesday, March 19, 2014

  Actual Average (KBKW) Record (KBKW)
Temperature  
Mean Temperature 52 °F -  
Max Temperature 70 °F 52 °F 79 °F (2012)
Min Temperature 34 °F 32 °F 7 °F (1939)
Degree Days  
Heating Degree Days 13    
Growing Degree Days 2 (Base 50)    
Moisture  
Dew Point 41 °F    
Average Humidity 70    
Maximum Humidity 100    
Minimum Humidity 35    
Precipitation  
Precipitation 0.00 in - - ()
Sea Level Pressure  
Sea Level Pressure 29.98 in    
Wind  
Wind Speed - (North)    
Max Wind Speed -    
Max Gust Speed -    
Visibility 10 miles    
Events Rain    
Averages and records for this station are not official NWS values.
T = Trace of Precipitation, MM = Missing Value Source: NWS Daily Summary

Daily Weather History Graph

Daily Weather History Graph

Search for Another Location

Airport or City:

Trip Planner

Search our weather history database for the weather conditions in past years. The results will help you decide how hot, cold, wet, or windy it might be!

Date:

Astronomy

Mar. 19, 2014 Rise Set
Actual Time 7:31 AM EDT 7:37 PM EDT
Civil Twilight 7:05 AM EDT 8:03 PM EDT
Nautical Twilight 6:34 AM EDT 8:33 PM EDT
Astronomical Twilight 6:03 AM EDT 9:04 PM EDT
Moon 10:50 PM EDT (3/19) 8:59 AM EDT (3/19)
Length of Visible Light 12h 58m
Length of Day
12h 05m
Waning Gibbous, 91% of the Moon is Illuminated
Mar 19
Waning Gibbous
Mar 23
Last Quarter
Mar 30
New
Apr 7
First Quarter
Apr 15
Full

Hourly Weather History & Observations

Time (EDT) Temp. Dew Point Humidity Pressure Visibility Wind Dir Wind Speed Gust Speed Precip Events Conditions
12:15 AM 44.6 °F 40.1 °F 84% 30.05 in 10.0 mi North - - N/A   Clear
12:35 AM 41.7 °F 38.8 °F 89% 30.06 in 10.0 mi North - - N/A   Clear
12:55 AM 40.6 °F 38.7 °F 93% 30.06 in 10.0 mi North - - N/A   Scattered Clouds
1:15 AM 40.5 °F 38.8 °F 94% 30.06 in 10.0 mi North - - N/A   Clear
1:35 AM 41.9 °F 39.4 °F 91% 30.08 in 10.0 mi North - - N/A   Clear
1:55 AM 44.1 °F 41.2 °F 90% 30.06 in 10.0 mi North - - N/A   Clear
2:15 AM 44.2 °F 40.6 °F 87% 30.07 in 10.0 mi North - - N/A   Clear
2:35 AM 45.1 °F 40.8 °F 85% 30.06 in 10.0 mi North - - N/A   Clear
2:55 AM 43.5 °F 39.0 °F 84% 30.06 in 10.0 mi North - - N/A   Clear
3:15 AM 40.1 °F 38.5 °F 94% 30.05 in 10.0 mi North - - N/A   Clear
3:35 AM 39.7 °F 38.5 °F 95% 30.04 in 10.0 mi North - - N/A   Clear
3:55 AM 39.4 °F 37.9 °F 95% 30.04 in 10.0 mi North - - N/A   Clear
4:15 AM 38.3 °F 37.9 °F 99% 30.03 in 10.0 mi North - - N/A   Clear
4:35 AM 37.9 °F 37.9 °F 100% 30.03 in 10.0 mi North - - N/A   Clear
4:55 AM 37.9 °F 37.9 °F 100% 30.03 in 10.0 mi North - - N/A   Clear
5:15 AM 37.8 °F 37.8 °F 100% 30.03 in 10.0 mi North - - N/A   Clear
5:35 AM 37.8 °F 37.8 °F 100% 30.03 in 10.0 mi North - - N/A   Clear
5:55 AM 37.8 °F 37.8 °F 100% 30.04 in 10.0 mi North - - N/A   Clear
6:15 AM 37.0 °F 37.0 °F 100% 30.04 in 10.0 mi North - - N/A   Clear
6:35 AM 36.0 °F 36.0 °F 100% 30.05 in 10.0 mi North - - N/A   Clear
6:55 AM 35.2 °F 35.2 °F 100% 30.05 in 10.0 mi North - - N/A   Clear
7:15 AM 35.1 °F 35.1 °F 100% 30.04 in 10.0 mi North - - N/A   Clear
7:35 AM 35.1 °F 35.1 °F 100% 30.04 in 10.0 mi North - - N/A   Clear
7:55 AM 34.7 °F 34.7 °F 100% 30.04 in 10.0 mi North - - N/A   Clear
8:15 AM 34.5 °F 34.5 °F 100% 30.04 in 10.0 mi North - - N/A   Clear
8:35 AM 34.7 °F 34.7 °F 100% 30.03 in 10.0 mi North - - N/A   Clear
8:55 AM 36.7 °F 36.7 °F 100% 30.04 in 10.0 mi North - - N/A   Clear
9:15 AM 39.0 °F 39.0 °F 100% 30.03 in 10.0 mi North - - N/A   Clear
9:35 AM 44.4 °F 44.4 °F 100% 30.03 in 10.0 mi North - - N/A   Clear
9:55 AM 50.7 °F 45.5 °F 82% 30.03 in 10.0 mi North - - N/A   Clear
10:15 AM 54.1 °F 45.1 °F 72% 30.02 in 10.0 mi North - - N/A   Clear
10:35 AM 56.5 °F 45.7 °F 67% 30.01 in 10.0 mi North - - N/A   Clear
10:55 AM 59.2 °F 46.0 °F 62% 30.00 in 10.0 mi North - - N/A   Clear
11:15 AM 60.3 °F 45.3 °F 58% 29.98 in 10.0 mi North - - N/A   Clear
11:35 AM 62.6 °F 46.2 °F 55% 29.98 in 10.0 mi North - - N/A   Clear
11:55 AM 64.0 °F 45.1 °F 50% 29.97 in 10.0 mi North - - N/A   Clear
12:15 PM 64.6 °F 45.0 °F 49% 29.96 in 10.0 mi North - - N/A   Clear
12:35 PM 65.1 °F 44.6 °F 47% 29.96 in 10.0 mi North - - N/A   Clear
12:55 PM 65.5 °F 44.8 °F 47% 29.95 in 10.0 mi North - - N/A   Clear
1:15 PM 67.6 °F 45.3 °F 45% 29.93 in 10.0 mi North - - N/A   Clear
1:35 PM 69.1 °F 41.9 °F 37% 29.93 in 10.0 mi North - - N/A   Clear
1:55 PM 69.4 °F 41.9 °F 37% 29.92 in 10.0 mi North - - N/A   Clear
2:15 PM 69.8 °F 40.8 °F 35% 29.91 in 10.0 mi North - - N/A   Clear
2:35 PM 69.8 °F 41.2 °F 35% 29.89 in 10.0 mi North - - N/A   Clear
2:55 PM 70.2 °F 41.5 °F 35% 29.89 in 10.0 mi North - - N/A   Clear
3:15 PM 70.2 °F 41.9 °F 36% 29.88 in 10.0 mi North - - N/A   Mostly Cloudy
3:35 PM 68.4 °F 42.1 °F 38% 29.87 in 10.0 mi North - - N/A   Overcast
3:55 PM 68.7 °F 43.7 °F 40% 29.88 in 10.0 mi North - - N/A   Mostly Cloudy
4:15 PM 68.5 °F 44.4 °F 42% 29.89 in 10.0 mi North - - N/A   Scattered Clouds
4:35 PM 67.3 °F 43.9 °F 43% 29.88 in 10.0 mi North - - N/A   Scattered Clouds
4:55 PM 67.3 °F 44.6 °F 44% 29.88 in 10.0 mi North - - N/A   Mostly Cloudy
5:15 PM 66.6 °F 44.1 °F 44% 29.89 in 10.0 mi North - - N/A   Mostly Cloudy
5:35 PM 64.9 °F 44.6 °F 48% 29.88 in 10.0 mi North - - N/A   Mostly Cloudy
5:55 PM 65.7 °F 45.0 °F 47% 29.89 in 10.0 mi North - - N/A   Mostly Cloudy
6:15 PM 65.7 °F 42.3 °F 43% 29.89 in 10.0 mi North - - N/A   Scattered Clouds
6:35 PM 63.5 °F 41.7 °F 45% 29.91 in 10.0 mi North - - N/A   Scattered Clouds
6:55 PM 62.2 °F 42.3 °F 48% 29.92 in 10.0 mi North - - N/A   Overcast
7:15 PM 61.2 °F 42.1 °F 50% 29.92 in 10.0 mi North - - N/A   Overcast
7:35 PM 60.8 °F 41.9 °F 50% 29.94 in 10.0 mi North - - N/A   Overcast
7:55 PM 59.9 °F 41.0 °F 50% 29.94 in 10.0 mi North - - N/A   Overcast
8:15 PM 59.2 °F 40.1 °F 49% 29.94 in 10.0 mi North - - N/A   Overcast
8:35 PM 58.8 °F 40.1 °F 50% 29.95 in 10.0 mi North - - N/A   Overcast
8:55 PM 58.3 °F 40.5 °F 52% 29.95 in 10.0 mi North - - N/A   Overcast
9:15 PM 57.4 °F 41.2 °F 55% 29.96 in 10.0 mi North - - N/A   Overcast
9:35 PM 57.6 °F 41.9 °F 56% 29.96 in 10.0 mi North - - N/A   Overcast
9:55 PM 57.4 °F 42.3 °F 57% 29.96 in 10.0 mi North - - N/A   Overcast
10:15 PM 56.5 °F 42.6 °F 60% 29.96 in 10.0 mi North - - N/A   Mostly Cloudy
10:35 PM 56.7 °F 42.8 °F 60% 29.96 in 10.0 mi North - - N/A   Overcast
10:55 PM 55.0 °F 45.1 °F 69% 29.98 in 10.0 mi North - - N/A Rain Rain
11:15 PM 52.0 °F 47.3 °F 84% 29.98 in 10.0 mi North - - N/A Rain Light Rain
11:35 PM 52.2 °F 47.1 °F 83% 29.98 in 10.0 mi North - - N/A   Overcast
11:55 PM 51.4 °F 46.8 °F 84% 29.98 in 10.0 mi North - - N/A   Overcast